Location: Amarillo Post Office Jordan Station
(35.1907°N, 101.9342°W)
Time: 13:37:55
(UTC+00:00)

Cosmos 2034 Rocket - Pass Details

Date: 24 January 2021
Orbit: 957 x 1001 km, 82.9° (Epoch: 04 March)

Event Time Altitude Azimuth Distance (km) Brightness Sun altitude
Rises 12:09:15 0° 194° (SSW) 3,707 7.0 -21.0°
Reaches altitude 10° 12:11:47 10° 197° (SSW) 2,762 6.3 -20.4°
Maximum altitude 12:18:05 63° 278° (W) 1,109 4.0 -19.2°
Drops below altitude 10° 12:24:24 10° 359° (N) 2,772 6.3 -17.9°
Sets 12:26:58 0° 3° (N) 3,720 7.0 -17.4°
